Back to catalog

STARLINK-5879

AliveCommunicationsVLEO
NORAD 57153·PAYLOAD·🇺🇸 United States

Launched Jun 23, 2023 from Cape Canaveral Space Force Station

Loading…

Next Passes (next 24 hours)

TLE

FreshSource: CelesTrak SupGP

Epoch: Sep 14, 2026, 14:27 UTC

1 57153C 23090BE  26257.60256944 -.00002176  00000+0 -78823-4 0  2579
2 57153  43.0020 265.3765 0001572 306.7978  10.8929 15.27575049    16

Track STARLINK-5879 in real time with AllMySat

Download on the App Store